Weather in Sejdisfjordur

Iceland     65°15′35″N   14°00′30″W
temp.,
°C
wind,
m/s
gust,
m/s
humid.,
%
clouds,
%
prec.,
mm/h
press.,
hPa
HPBL,
m
23 april, fri
fri2300:00−2se1191100 0.0 102796
03:00−2s1193100 0.1 102767
06:00−1se118897 0.2 102767
09:000se218888 0.0 1027175
12:00+2se2188100 0.0 1027304
15:00+3s1184100 0.0 1027336
18:00+4sw1282100 0.0 1027244
21:00+2wsw2288100 0.0 102834
24 april, sat
sat2400:00+2w2285100 0.0 102828
03:00+2w2282100 0.0 102817
06:00+2w2282100 0.0 102812
09:00+5w1176100 0.0 102879
12:00+7sw1166100 0.0 1028336
15:00+8sse1166100 0.0 1028397
18:00+7sse0072100 0.0 1027221
21:00+5s1179100 0.0 102712
25 april, sun
sun2500:00+4wsw117983 0.0 102511
03:00+3w2283100 0.0 102519
06:00+4w1181100 0.0 102318
09:00+6ssw0172100 0.1 1022205
12:00+3wnw1197100 3.6 1021310
15:00+2nnw2297100 1.8 1021368
18:00+2n2398100 3.3 1022484
21:00+3nne2398100 1.0 1025440
26 april, mon
mon2600:00+2n2298100 1.6 1027161
03:00+2nnw3398100 0.1 1029190
06:00+1nw339799 0.1 1030245
09:00+1nw338570 0.0 1031406
12:00+3nnw347261 0.0 1031798
15:00+5n246259 0.0 1031984
18:00+4n22637 0.0 1031830
21:00+2ene11765 0.0 103278
27 april, tue
tue2700:00+1s11855 0.0 103121
03:00+1sw11855 0.0 103011
06:00+1wsw118163 0.0 103026
09:00+4w1167100 0.0 1029287
12:00+6nw1256100 0.0 1028781
15:00+7n1255100 0.0 10271190
18:00+6ne116497 0.0 1026629
21:00+5sse017398 0.0 1026335